START_TIME,STEP,MOV.,EG07,t_acc.,EG08,t_acc.,EG09,t_acc.,EB05,t_acc.,EBP05,t_acc.
1979-08-06 21:00:21.330 ,0,0,1.,1.2,0.,1.2,0.,1.2,,0.0,,0.0
1979-08-06 21:00:22.530 ,0,0,2.,1.2,0.,1.2,0.,1.2,,0.0,,0.0
1979-08-06 21:00:23.730 ,0,0,5.,1.2,0.,1.2,0.,1.2,,0.0,,0.0
1979-08-06 21:00:24.930 ,0,0,3.,1.2,0.,1.2,0.,1.2,,0.0,,0.0
1979-08-06 21:00:26.130 ,0,0,2.,1.2,1.,1.2,0.,1.2,,0.0,,0.0
1979-08-06 21:00:27.330 ,0,0,1.,1.2,1.,1.2,0.,1.2,,0.0,,0.0
1979-08-06 21:00:28.530 ,0,0,1.,1.2,0.,1.2,0.,1.2,,0.0,,0.0
1979-08-06 21:00:29.730 ,0,0,0.,1.2,0.,1.2,0.,1.2,,0.0,,0.0
1979-08-06 21:00:30.930 ,0,0,3.,1.2,0.,1.2,0.,1.2,,0.0,,0.0
1979-08-06 21:00:32.130 ,0,0,0.,1.2,0.,1.2,0.,1.2,,0.0,,0.0
1979-08-06 21:00:33.330 ,0,0,1.,1.2,0.,1.2,0.,1.2,,0.0,,0.0
1979-08-06 21:00:34.530 ,0,0,1.,1.2,0.,1.2,0.,1.2,,0.0,,0.0
1979-08-06 21:00:35.730 ,0,0,0.,1.2,0.,1.2,0.,1.2,,0.0,,0.0
1979-08-06 21:00:36.930 ,0,0,2.,1.2,0.,1.2,0.,1.2,,0.0,,0.0
1979-08-06 21:00:38.130 ,0,0,0.,1.2,0.,1.2,0.,1.2,,0.0,,0.0
1979-08-06 21:00:39.330 ,0,0,0.,1.2,0.,1.2,0.,1.2,,0.0,,0.0
1979-08-06 21:00:40.530 ,0,0,2.,1.2,0.,1.2,0.,1.2,,0.0,,0.0
1979-08-06 21:00:41.730 ,0,0,2.,1.2,0.,1.2,0.,1.2,,0.0,,0.0
1979-08-06 21:00:42.930 ,0,0,1.,1.2,0.,1.2,0.,1.2,,0.0,,0.0
1979-08-06 21:00:44.130 ,0,0,0.,1.2,0.,1.2,0.,1.2,,0.0,,0.0
1979-08-06 21:00:45.330 ,0,0,1.,1.2,0.,1.2,0.,1.2,,0.0,,0.0
1979-08-06 21:00:46.530 ,0,0,1.,1.2,0.,1.2,0.,1.2,,0.0,,0.0
1979-08-06 21:00:47.730 ,0,0,2.,1.2,1.,1.2,0.,1.2,,0.0,,0.0
1979-08-06 21:00:48.930 ,0,0,0.,1.2,0.,1.2,0.,1.2,,0.0,,0.0
1979-08-06 21:00:50.130 ,0,0,1.,1.2,0.,1.2,0.,1.2,,0.0,,0.0
1979-08-06 21:00:51.330 ,0,0,3.,1.2,0.,1.2,0.,1.2,,0.0,,0.0
1979-08-06 21:00:52.530 ,0,0,2.,1.2,0.,1.2,0.,1.2,,0.0,,0.0
1979-08-06 21:00:53.730 ,0,0,0.,1.2,0.,1.2,0.,1.2,,0.0,,0.0
1979-08-06 21:00:54.930 ,0,0,1.,1.2,0.,1.2,0.,1.2,,0.0,,0.0
1979-08-06 21:00:56.130 ,0,0,1.,1.2,0.,1.2,0.,1.2,,0.0,,0.0
1979-08-06 21:00:57.330 ,0,0,3.,1.2,0.,1.2,0.,1.2,,0.0,,0.0
1979-08-06 21:00:58.530 ,0,0,3.,1.2,0.,1.2,0.,1.2,,0.0,,0.0
1979-08-06 21:00:59.730 ,0,0,1.,1.2,0.,1.2,0.,1.2,,0.0,,0.0
1979-08-06 21:01:00.930 ,0,0,4.,1.2,0.,1.2,0.,1.2,,0.0,,0.0
1979-08-06 21:01:02.130 ,0,0,1.,1.2,0.,1.2,0.,1.2,,0.0,,0.0
1979-08-06 21:01:03.330 ,0,0,1.,1.2,1.,1.2,0.,1.2,,0.0,,0.0
1979-08-06 21:01:04.530 ,0,0,1.,1.2,0.,1.2,0.,1.2,,0.0,,0.0
1979-08-06 21:01:05.730 ,0,0,2.,1.2,0.,1.2,0.,1.2,,0.0,,0.0
1979-08-06 21:01:06.930 ,0,0,2.,1.2,0.,1.2,0.,1.2,,0.0,,0.0
1979-08-06 21:01:08.130 ,0,0,3.,1.2,0.,1.2,0.,1.2,,0.0,,0.0
1979-08-06 21:01:09.330 ,0,0,0.,1.2,0.,1.2,0.,1.2,,0.0,,0.0
1979-08-06 21:01:10.530 ,0,0,1.,1.2,0.,1.2,0.,1.2,,0.0,,0.0
1979-08-06 21:01:11.730 ,0,0,3.,1.2,0.,1.2,0.,1.2,,0.0,,0.0
1979-08-06 21:01:12.930 ,0,0,1.,1.2,0.,1.2,0.,1.2,,0.0,,0.0
1979-08-06 21:01:14.130 ,0,0,1.,1.2,0.,1.2,0.,1.2,,0.0,,0.0
1979-08-06 21:01:15.330 ,0,0,2.,1.2,0.,1.2,0.,1.2,,0.0,,0.0
1979-08-06 21:01:16.530 ,0,0,2.,1.2,0.,1.2,0.,1.2,,0.0,,0.0
1979-08-06 21:01:17.730 ,0,0,1.,1.2,0.,1.2,0.,1.2,,0.0,,0.0
1979-08-06 21:01:18.930 ,0,0,0.,1.2,0.,1.2,0.,1.2,,0.0,,0.0
1979-08-06 21:01:20.130 ,0,0,3.,1.2,1.,1.2,0.,1.2,,0.0,,0.0
1979-08-06 21:01:21.330 ,0,0,3.,1.2,1.,1.2,1.,1.2,,0.0,,0.0
1979-08-06 21:01:22.530 ,0,0,1.,1.2,1.,1.2,0.,1.2,,0.0,,0.0
1979-08-06 21:01:23.730 ,0,0,1.,1.2,0.,1.2,0.,1.2,,0.0,,0.0
1979-08-06 21:01:24.930 ,0,0,0.,1.2,0.,1.2,0.,1.2,,0.0,,0.0
1979-08-06 21:01:26.130 ,0,0,1.,1.2,1.,1.2,0.,1.2,,0.0,,0.0
1979-08-06 21:01:27.330 ,0,0,0.,1.2,0.,1.2,0.,1.2,,0.0,,0.0
1979-08-06 21:01:28.530 ,0,0,2.,1.2,0.,1.2,0.,1.2,,0.0,,0.0
1979-08-06 21:01:29.730 ,0,0,1.,1.2,1.,1.2,0.,1.2,,0.0,,0.0
1979-08-06 21:01:30.930 ,0,0,1.,1.2,0.,1.2,0.,1.2,,0.0,,0.0
1979-08-06 21:01:32.130 ,0,0,2.,1.2,0.,1.2,0.,1.2,,0.0,,0.0
1979-08-06 21:01:33.330 ,1,0,2.,1.2,0.,1.2,0.,1.2,,0.0,,0.0
1979-08-06 21:01:34.530 ,1,0,0.,1.2,0.,1.2,0.,1.2,,0.0,,0.0
1979-08-06 21:01:35.730 ,1,0,2.,1.2,0.,1.2,0.,1.2,,0.0,,0.0
1979-08-06 21:01:36.930 ,1,0,2.,1.2,0.,1.2,0.,1.2,,0.0,,0.0
1979-08-06 21:01:38.130 ,1,0,2.,1.2,0.,1.2,0.,1.2,,0.0,,0.0
1979-08-06 21:01:39.330 ,1,0,0.,1.2,0.,1.2,0.,1.2,,0.0,,0.0
1979-08-06 21:01:40.530 ,1,0,1.,1.2,1.,1.2,0.,1.2,,0.0,,0.0
1979-08-06 21:01:41.730 ,1,0,2.,1.2,0.,1.2,0.,1.2,,0.0,,0.0
1979-08-06 21:01:42.930 ,1,0,2.,1.2,1.,1.2,0.,1.2,,0.0,,0.0
1979-08-06 21:01:44.130 ,1,0,2.,1.2,0.,1.2,0.,1.2,,0.0,,0.0
1979-08-06 21:01:45.330 ,1,0,2.,1.2,0.,1.2,0.,1.2,,0.0,,0.0
1979-08-06 21:01:46.530 ,1,0,0.,1.2,0.,1.2,0.,1.2,,0.0,,0.0
1979-08-06 21:01:47.730 ,1,0,1.,1.2,0.,1.2,0.,1.2,,0.0,,0.0
1979-08-06 21:01:48.930 ,1,0,2.,1.2,0.,1.2,0.,1.2,,0.0,,0.0
1979-08-06 21:01:50.130 ,1,0,1.,1.2,0.,1.2,0.,1.2,,0.0,,0.0
1979-08-06 21:01:51.330 ,1,0,1.,1.2,0.,1.2,0.,1.2,,0.0,,0.0
1979-08-06 21:01:52.530 ,1,0,0.,1.2,0.,1.2,0.,1.2,,0.0,,0.0
1979-08-06 21:01:53.730 ,1,0,1.,1.2,0.,1.2,0.,1.2,,0.0,,0.0
1979-08-06 21:01:54.930 ,1,0,1.,1.2,0.,1.2,0.,1.2,,0.0,,0.0
1979-08-06 21:01:56.130 ,1,0,1.,1.2,1.,1.2,1.,1.2,,0.0,,0.0
1979-08-06 21:01:57.330 ,1,0,0.,1.2,0.,1.2,0.,1.2,,0.0,,0.0
1979-08-06 21:01:58.530 ,1,0,0.,1.2,0.,1.2,0.,1.2,,0.0,,0.0
1979-08-06 21:01:59.730 ,1,0,1.,1.2,0.,1.2,0.,1.2,,0.0,,0.0
1979-08-06 21:02:00.930 ,1,0,2.,1.2,1.,1.2,0.,1.2,,0.0,,0.0
1979-08-06 21:02:02.130 ,1,0,3.,1.2,1.,1.2,0.,1.2,,0.0,,0.0
1979-08-06 21:02:03.330 ,1,0,0.,1.2,0.,1.2,0.,1.2,,0.0,,0.0
1979-08-06 21:02:04.530 ,1,0,0.,1.2,0.,1.2,0.,1.2,,0.0,,0.0
1979-08-06 21:02:05.730 ,1,0,0.,1.2,0.,1.2,0.,1.2,,0.0,,0.0
1979-08-06 21:02:06.930 ,1,0,2.,1.2,0.,1.2,0.,1.2,,0.0,,0.0
1979-08-06 21:02:08.130 ,1,0,2.,1.2,1.,1.2,0.,1.2,,0.0,,0.0
1979-08-06 21:02:09.330 ,1,0,0.,1.2,0.,1.2,0.,1.2,,0.0,,0.0
1979-08-06 21:02:10.530 ,1,0,1.,1.2,0.,1.2,0.,1.2,,0.0,,0.0
1979-08-06 21:02:11.730 ,1,0,1.,1.2,0.,1.2,0.,1.2,,0.0,,0.0
1979-08-06 21:02:12.930 ,1,0,2.,1.2,1.,1.2,0.,1.2,,0.0,,0.0
1979-08-06 21:02:14.130 ,1,0,2.,1.2,0.,1.2,0.,1.2,,0.0,,0.0
1979-08-06 21:02:15.330 ,1,0,5.,1.2,1.,1.2,0.,1.2,,0.0,,0.0
1979-08-06 21:02:16.530 ,1,0,4.,1.2,0.,1.2,0.,1.2,,0.0,,0.0
1979-08-06 21:02:17.730 ,1,0,2.,1.2,0.,1.2,0.,1.2,,0.0,,0.0
1979-08-06 21:02:18.930 ,1,0,1.,1.2,0.,1.2,0.,1.2,,0.0,,0.0
1979-08-06 21:02:20.130 ,1,0,1.,1.2,0.,1.2,0.,1.2,,0.0,,0.0
1979-08-06 21:02:21.330 ,2,0,1.,1.2,1.,1.2,0.,1.2,,0.0,,0.0
1979-08-06 21:02:22.530 ,2,0,0.,1.2,0.,1.2,0.,1.2,,0.0,,0.0
1979-08-06 21:02:23.730 ,2,0,0.,1.2,0.,1.2,0.,1.2,,0.0,,0.0
1979-08-06 21:02:24.930 ,2,0,1.,1.2,1.,1.2,0.,1.2,,0.0,,0.0
1979-08-06 21:02:26.130 ,2,0,2.,1.2,0.,1.2,0.,1.2,,0.0,,0.0
1979-08-06 21:02:27.330 ,2,0,3.,1.2,0.,1.2,0.,1.2,,0.0,,0.0
1979-08-06 21:02:28.530 ,2,0,0.,1.2,0.,1.2,0.,1.2,,0.0,,0.0
1979-08-06 21:02:29.730 ,2,0,0.,1.2,0.,1.2,0.,1.2,,0.0,,0.0
1979-08-06 21:02:30.930 ,2,0,2.,1.2,1.,1.2,0.,1.2,,0.0,,0.0
1979-08-06 21:02:32.130 ,2,0,0.,1.2,0.,1.2,0.,1.2,,0.0,,0.0
1979-08-06 21:02:33.330 ,2,0,1.,1.2,0.,1.2,0.,1.2,,0.0,,0.0
1979-08-06 21:02:34.530 ,2,0,3.,1.2,0.,1.2,0.,1.2,,0.0,,0.0
1979-08-06 21:02:35.730 ,2,0,1.,1.2,0.,1.2,0.,1.2,,0.0,,0.0
1979-08-06 21:02:36.930 ,2,0,1.,1.2,0.,1.2,0.,1.2,,0.0,,0.0
1979-08-06 21:02:38.130 ,2,0,1.,1.2,1.,1.2,1.,1.2,,0.0,,0.0
1979-08-06 21:02:39.330 ,2,0,1.,1.2,0.,1.2,0.,1.2,,0.0,,0.0
1979-08-06 21:02:40.530 ,2,0,0.,1.2,0.,1.2,0.,1.2,,0.0,,0.0
1979-08-06 21:02:41.730 ,2,0,1.,1.2,0.,1.2,0.,1.2,,0.0,,0.0
1979-08-06 21:02:42.930 ,2,0,0.,1.2,0.,1.2,0.,1.2,,0.0,,0.0
1979-08-06 21:02:44.130 ,2,0,1.,1.2,0.,1.2,0.,1.2,,0.0,,0.0
1979-08-06 21:02:45.330 ,2,0,2.,1.2,0.,1.2,0.,1.2,,0.0,,0.0
1979-08-06 21:02:46.530 ,2,0,0.,1.2,0.,1.2,0.,1.2,,0.0,,0.0
1979-08-06 21:02:47.730 ,2,0,3.,1.2,0.,1.2,0.,1.2,,0.0,,0.0
1979-08-06 21:02:48.930 ,2,0,0.,1.2,0.,1.2,0.,1.2,,0.0,,0.0
1979-08-06 21:02:50.130 ,2,0,3.,1.2,1.,1.2,0.,1.2,,0.0,,0.0
1979-08-06 21:02:51.330 ,2,0,0.,1.2,0.,1.2,0.,1.2,,0.0,,0.0
1979-08-06 21:02:52.530 ,2,0,1.,1.2,0.,1.2,0.,1.2,,0.0,,0.0
1979-08-06 21:02:53.730 ,2,0,1.,1.2,1.,1.2,0.,1.2,,0.0,,0.0
1979-08-06 21:02:54.930 ,2,0,1.,1.2,0.,1.2,0.,1.2,,0.0,,0.0
1979-08-06 21:02:56.130 ,2,0,3.,1.2,0.,1.2,0.,1.2,,0.0,,0.0
1979-08-06 21:02:57.330 ,2,0,0.,1.2,0.,1.2,0.,1.2,,0.0,,0.0
1979-08-06 21:02:58.530 ,2,0,4.,1.2,0.,1.2,0.,1.2,,0.0,,0.0
1979-08-06 21:02:59.730 ,2,0,4.,1.2,1.,1.2,0.,1.2,,0.0,,0.0
1979-08-06 21:03:00.930 ,2,0,2.,1.2,0.,1.2,0.,1.2,,0.0,,0.0
1979-08-06 21:03:02.130 ,2,0,0.,1.2,0.,1.2,0.,1.2,,0.0,,0.0
1979-08-06 21:03:03.330 ,2,0,1.,1.2,0.,1.2,0.,1.2,,0.0,,0.0
1979-08-06 21:03:04.530 ,2,0,2.,1.2,0.,1.2,0.,1.2,,0.0,,0.0
1979-08-06 21:03:05.730 ,2,0,0.,1.2,0.,1.2,0.,1.2,,0.0,,0.0
1979-08-06 21:03:06.930 ,2,0,2.,1.2,0.,1.2,0.,1.2,,0.0,,0.0
1979-08-06 21:03:08.130 ,2,0,2.,1.2,0.,1.2,0.,1.2,,0.0,,0.0
1979-08-06 21:03:09.330 ,3,0,0.,1.2,0.,1.2,0.,1.2,,0.0,,0.0
1979-08-06 21:03:10.530 ,3,0,1.,1.2,0.,1.2,0.,1.2,,0.0,,0.0
1979-08-06 21:03:11.730 ,3,0,1.,1.2,0.,1.2,0.,1.2,,0.0,,0.0
1979-08-06 21:03:12.930 ,3,0,1.,1.2,1.,1.2,0.,1.2,,0.0,,0.0
1979-08-06 21:03:14.130 ,3,0,1.,1.2,0.,1.2,0.,1.2,,0.0,,0.0
1979-08-06 21:03:15.330 ,3,0,0.,1.2,0.,1.2,0.,1.2,,0.0,,0.0
1979-08-06 21:03:16.530 ,3,0,0.,1.2,0.,1.2,0.,1.2,,0.0,,0.0
1979-08-06 21:03:17.730 ,3,0,1.,1.2,0.,1.2,0.,1.2,,0.0,,0.0
1979-08-06 21:03:18.930 ,3,0,0.,1.2,0.,1.2,0.,1.2,,0.0,,0.0
1979-08-06 21:03:20.130 ,3,0,2.,1.2,0.,1.2,0.,1.2,,0.0,,0.0
1979-08-06 21:03:21.330 ,3,0,1.,1.2,0.,1.2,0.,1.2,,0.0,,0.0
1979-08-06 21:03:22.530 ,3,0,1.,1.2,0.,1.2,0.,1.2,,0.0,,0.0
1979-08-06 21:03:23.730 ,3,0,1.,1.2,1.,1.2,1.,1.2,,0.0,,0.0
1979-08-06 21:03:24.930 ,3,0,2.,1.2,0.,1.2,0.,1.2,,0.0,,0.0
1979-08-06 21:03:26.130 ,3,0,1.,1.2,0.,1.2,0.,1.2,,0.0,,0.0
1979-08-06 21:03:27.330 ,3,0,0.,1.2,0.,1.2,0.,1.2,,0.0,,0.0
1979-08-06 21:03:28.530 ,3,0,1.,1.2,1.,1.2,0.,1.2,,0.0,,0.0
1979-08-06 21:03:29.730 ,3,0,0.,1.2,0.,1.2,0.,1.2,,0.0,,0.0
1979-08-06 21:03:30.930 ,3,0,3.,1.2,0.,1.2,0.,1.2,,0.0,,0.0
1979-08-06 21:03:32.130 ,3,0,0.,1.2,0.,1.2,0.,1.2,,0.0,,0.0
1979-08-06 21:03:33.330 ,3,0,0.,1.2,0.,1.2,0.,1.2,,0.0,,0.0
1979-08-06 21:03:34.530 ,3,0,1.,1.2,0.,1.2,0.,1.2,,0.0,,0.0
1979-08-06 21:03:35.730 ,3,0,0.,1.2,0.,1.2,0.,1.2,,0.0,,0.0
1979-08-06 21:03:36.930 ,3,0,0.,1.2,0.,1.2,0.,1.2,,0.0,,0.0
1979-08-06 21:03:38.130 ,3,0,2.,1.2,0.,1.2,0.,1.2,,0.0,,0.0
1979-08-06 21:03:39.330 ,3,0,1.,1.2,0.,1.2,0.,1.2,,0.0,,0.0
1979-08-06 21:03:40.530 ,3,0,1.,1.2,0.,1.2,0.,1.2,,0.0,,0.0
1979-08-06 21:03:41.730 ,3,0,2.,1.2,0.,1.2,0.,1.2,,0.0,,0.0
1979-08-06 21:03:42.930 ,3,0,0.,1.2,0.,1.2,0.,1.2,,0.0,,0.0
1979-08-06 21:03:44.130 ,3,0,3.,1.2,1.,1.2,0.,1.2,,0.0,,0.0
1979-08-06 21:03:45.330 ,3,0,1.,1.2,0.,1.2,0.,1.2,,0.0,,0.0
1979-08-06 21:03:46.530 ,3,0,0.,1.2,0.,1.2,0.,1.2,,0.0,,0.0
1979-08-06 21:03:47.730 ,3,0,2.,1.2,0.,1.2,0.,1.2,,0.0,,0.0
1979-08-06 21:03:48.930 ,3,0,2.,1.2,1.,1.2,0.,1.2,,0.0,,0.0
1979-08-06 21:03:50.130 ,3,0,1.,1.2,0.,1.2,0.,1.2,,0.0,,0.0
1979-08-06 21:03:51.330 ,3,0,1.,1.2,0.,1.2,0.,1.2,,0.0,,0.0
1979-08-06 21:03:52.530 ,3,0,1.,1.2,0.,1.2,0.,1.2,,0.0,,0.0
1979-08-06 21:03:53.730 ,3,0,1.,1.2,0.,1.2,0.,1.2,,0.0,,0.0
1979-08-06 21:03:54.930 ,3,0,0.,1.2,0.,1.2,0.,1.2,,0.0,,0.0
1979-08-06 21:03:56.130 ,3,0,1.,1.2,1.,1.2,0.,1.2,,0.0,,0.0
1979-08-06 21:03:57.330 ,4,0,0.,1.2,0.,1.2,0.,1.2,,0.0,,0.0
1979-08-06 21:03:58.530 ,4,0,1.,1.2,0.,1.2,0.,1.2,,0.0,,0.0
1979-08-06 21:03:59.730 ,4,0,2.,1.2,0.,1.2,0.,1.2,,0.0,,0.0
1979-08-06 21:04:00.930 ,4,0,0.,1.2,0.,1.2,0.,1.2,,0.0,,0.0
1979-08-06 21:04:02.130 ,4,0,0.,1.2,0.,1.2,0.,1.2,,0.0,,0.0
1979-08-06 21:04:03.330 ,4,0,1.,1.2,0.,1.2,0.,1.2,,0.0,,0.0
1979-08-06 21:04:04.530 ,4,0,1.,1.2,0.,1.2,0.,1.2,,0.0,,0.0
1979-08-06 21:04:05.730 ,4,0,4.,1.2,1.,1.2,0.,1.2,,0.0,,0.0
1979-08-06 21:04:06.930 ,4,0,1.,1.2,0.,1.2,0.,1.2,,0.0,,0.0
1979-08-06 21:04:08.130 ,4,0,0.,1.2,0.,1.2,0.,1.2,,0.0,,0.0
1979-08-06 21:04:09.330 ,4,0,1.,1.2,0.,1.2,0.,1.2,,0.0,,0.0
1979-08-06 21:04:10.530 ,4,0,1.,1.2,0.,1.2,0.,1.2,,0.0,,0.0
1979-08-06 21:04:11.730 ,4,0,1.,1.2,0.,1.2,0.,1.2,,0.0,,0.0
1979-08-06 21:04:12.930 ,4,0,2.,1.2,1.,1.2,0.,1.2,,0.0,,0.0
1979-08-06 21:04:14.130 ,4,0,1.,1.2,0.,1.2,0.,1.2,,0.0,,0.0
1979-08-06 21:04:15.330 ,4,0,0.,1.2,0.,1.2,0.,1.2,,0.0,,0.0
1979-08-06 21:04:16.530 ,4,0,2.,1.2,0.,1.2,0.,1.2,,0.0,,0.0
1979-08-06 21:04:17.730 ,4,0,2.,1.2,0.,1.2,0.,1.2,,0.0,,0.0
1979-08-06 21:04:18.930 ,4,0,0.,1.2,0.,1.2,0.,1.2,,0.0,,0.0
1979-08-06 21:04:20.130 ,4,0,0.,1.2,0.,1.2,0.,1.2,,0.0,,0.0
1979-08-06 21:04:21.330 ,4,0,1.,1.2,0.,1.2,0.,1.2,,0.0,,0.0
1979-08-06 21:04:22.530 ,4,0,1.,1.2,0.,1.2,0.,1.2,,0.0,,0.0
1979-08-06 21:04:23.730 ,4,0,3.,1.2,0.,1.2,0.,1.2,,0.0,,0.0
1979-08-06 21:04:24.930 ,4,0,2.,1.2,0.,1.2,0.,1.2,,0.0,,0.0
1979-08-06 21:04:26.130 ,4,0,0.,1.2,0.,1.2,0.,1.2,,0.0,,0.0
1979-08-06 21:04:27.330 ,4,0,1.,1.2,0.,1.2,0.,1.2,,0.0,,0.0
1979-08-06 21:04:28.530 ,4,0,2.,1.2,1.,1.2,0.,1.2,,0.0,,0.0
1979-08-06 21:04:29.730 ,4,0,0.,1.2,0.,1.2,0.,1.2,,0.0,,0.0
1979-08-06 21:04:30.930 ,4,0,1.,1.2,1.,1.2,0.,1.2,,0.0,,0.0
1979-08-06 21:04:32.130 ,4,0,1.,1.2,0.,1.2,0.,1.2,,0.0,,0.0
1979-08-06 21:04:33.330 ,4,0,1.,1.2,1.,1.2,0.,1.2,,0.0,,0.0
1979-08-06 21:04:34.530 ,4,0,0.,1.2,0.,1.2,0.,1.2,,0.0,,0.0
1979-08-06 21:04:35.730 ,4,0,5.,1.2,0.,1.2,0.,1.2,,0.0,,0.0
1979-08-06 21:04:36.930 ,4,0,4.,1.2,2.,1.2,1.,1.2,,0.0,,0.0
1979-08-06 21:04:38.130 ,4,0,1.,1.2,0.,1.2,0.,1.2,,0.0,,0.0
1979-08-06 21:04:39.330 ,4,0,2.,1.2,0.,1.2,0.,1.2,,0.0,,0.0
1979-08-06 21:04:40.530 ,4,0,2.,1.2,1.,1.2,0.,1.2,,0.0,,0.0
1979-08-06 21:04:41.730 ,4,0,3.,1.2,0.,1.2,0.,1.2,,0.0,,0.0
1979-08-06 21:04:42.930 ,4,0,1.,1.2,0.,1.2,0.,1.2,,0.0,,0.0
1979-08-06 21:04:44.130 ,4,0,2.,1.2,0.,1.2,0.,1.2,,0.0,,0.0
1979-08-06 21:04:45.330 ,5,0,0.,1.2,0.,1.2,0.,1.2,,0.0,,0.0
1979-08-06 21:04:46.530 ,5,0,0.,1.2,0.,1.2,0.,1.2,,0.0,,0.0
1979-08-06 21:04:47.730 ,5,0,1.,1.2,0.,1.2,0.,1.2,,0.0,,0.0
1979-08-06 21:04:48.930 ,5,0,0.,1.2,0.,1.2,0.,1.2,,0.0,,0.0
1979-08-06 21:04:50.130 ,5,0,0.,1.2,0.,1.2,0.,1.2,,0.0,,0.0
1979-08-06 21:04:51.330 ,5,0,0.,1.2,0.,1.2,0.,1.2,,0.0,,0.0
1979-08-06 21:04:52.530 ,5,0,1.,1.2,0.,1.2,0.,1.2,,0.0,,0.0
1979-08-06 21:04:53.730 ,5,0,0.,1.2,0.,1.2,0.,1.2,,0.0,,0.0
1979-08-06 21:04:54.930 ,5,0,2.,1.2,0.,1.2,0.,1.2,,0.0,,0.0
1979-08-06 21:04:56.130 ,5,0,0.,1.2,0.,1.2,0.,1.2,,0.0,,0.0
1979-08-06 21:04:57.330 ,5,0,1.,1.2,0.,1.2,0.,1.2,,0.0,,0.0
1979-08-06 21:04:58.530 ,5,0,1.,1.2,0.,1.2,0.,1.2,,0.0,,0.0
1979-08-06 21:04:59.730 ,5,0,1.,1.2,0.,1.2,0.,1.2,,0.0,,0.0
1979-08-06 21:05:00.930 ,5,0,2.,1.2,0.,1.2,0.,1.2,,0.0,,0.0
1979-08-06 21:05:02.130 ,5,0,1.,1.2,0.,1.2,0.,1.2,,0.0,,0.0
1979-08-06 21:05:03.330 ,5,0,1.,1.2,0.,1.2,0.,1.2,,0.0,,0.0
1979-08-06 21:05:04.530 ,5,0,1.,1.2,0.,1.2,0.,1.2,,0.0,,0.0
1979-08-06 21:05:05.730 ,5,0,1.,1.2,0.,1.2,0.,1.2,,0.0,,0.0
1979-08-06 21:05:06.930 ,5,0,1.,1.2,0.,1.2,0.,1.2,,0.0,,0.0
1979-08-06 21:05:08.130 ,5,0,0.,1.2,0.,1.2,0.,1.2,,0.0,,0.0
1979-08-06 21:05:09.330 ,5,0,3.,1.2,1.,1.2,0.,1.2,,0.0,,0.0
1979-08-06 21:05:10.530 ,5,0,0.,1.2,0.,1.2,0.,1.2,,0.0,,0.0
1979-08-06 21:05:11.730 ,5,0,2.,1.2,0.,1.2,0.,1.2,,0.0,,0.0
1979-08-06 21:05:12.930 ,5,0,0.,1.2,0.,1.2,0.,1.2,,0.0,,0.0
1979-08-06 21:05:14.130 ,5,0,2.,1.2,0.,1.2,0.,1.2,,0.0,,0.0
1979-08-06 21:05:15.330 ,5,0,0.,1.2,0.,1.2,0.,1.2,,0.0,,0.0
1979-08-06 21:05:16.530 ,5,0,0.,1.2,0.,1.2,0.,1.2,,0.0,,0.0
1979-08-06 21:05:17.730 ,5,0,0.,1.2,0.,1.2,0.,1.2,,0.0,,0.0
1979-08-06 21:05:18.930 ,5,0,3.,1.2,0.,1.2,0.,1.2,,0.0,,0.0
1979-08-06 21:05:20.130 ,5,0,0.,1.2,0.,1.2,0.,1.2,,0.0,,0.0
1979-08-06 21:05:21.330 ,5,0,1.,1.2,0.,1.2,0.,1.2,,0.0,,0.0
1979-08-06 21:05:22.530 ,5,0,1.,1.2,0.,1.2,0.,1.2,,0.0,,0.0
1979-08-06 21:05:23.730 ,5,0,1.,1.2,0.,1.2,0.,1.2,,0.0,,0.0
1979-08-06 21:05:24.930 ,5,0,1.,1.2,0.,1.2,0.,1.2,,0.0,,0.0
1979-08-06 21:05:26.130 ,5,0,0.,1.2,0.,1.2,0.,1.2,,0.0,,0.0
1979-08-06 21:05:27.330 ,5,0,1.,1.2,0.,1.2,0.,1.2,,0.0,,0.0
1979-08-06 21:05:28.530 ,5,0,0.,1.2,0.,1.2,0.,1.2,,0.0,,0.0
1979-08-06 21:05:29.730 ,5,0,2.,1.2,0.,1.2,0.,1.2,,0.0,,0.0
1979-08-06 21:05:30.930 ,5,0,3.,1.2,0.,1.2,0.,1.2,,0.0,,0.0
1979-08-06 21:05:32.130 ,5,0,0.,1.2,0.,1.2,0.,1.2,,0.0,,0.0
1979-08-06 21:05:33.330 ,6,0,1.,1.2,0.,1.2,0.,1.2,,0.0,,0.0
1979-08-06 21:05:34.530 ,6,0,1.,1.2,0.,1.2,0.,1.2,,0.0,,0.0
1979-08-06 21:05:35.730 ,6,0,1.,1.2,0.,1.2,0.,1.2,,0.0,,0.0
1979-08-06 21:05:36.930 ,6,0,3.,1.2,1.,1.2,0.,1.2,,0.0,,0.0
1979-08-06 21:05:38.130 ,6,0,3.,1.2,0.,1.2,0.,1.2,,0.0,,0.0
1979-08-06 21:05:39.330 ,6,0,1.,1.2,0.,1.2,0.,1.2,,0.0,,0.0
1979-08-06 21:05:40.530 ,6,0,1.,1.2,0.,1.2,0.,1.2,,0.0,,0.0
1979-08-06 21:05:41.730 ,6,0,2.,1.2,1.,1.2,0.,1.2,,0.0,,0.0
1979-08-06 21:05:42.930 ,6,0,0.,1.2,0.,1.2,0.,1.2,,0.0,,0.0
1979-08-06 21:05:44.130 ,6,0,2.,1.2,1.,1.2,1.,1.2,,0.0,,0.0
1979-08-06 21:05:45.330 ,6,0,1.,1.2,0.,1.2,0.,1.2,,0.0,,0.0
1979-08-06 21:05:46.530 ,6,0,0.,1.2,0.,1.2,0.,1.2,,0.0,,0.0
1979-08-06 21:05:47.730 ,6,0,1.,1.2,0.,1.2,0.,1.2,,0.0,,0.0
1979-08-06 21:05:48.930 ,6,0,2.,1.2,0.,1.2,0.,1.2,,0.0,,0.0
1979-08-06 21:05:50.130 ,6,0,0.,1.2,0.,1.2,0.,1.2,,0.0,,0.0
1979-08-06 21:05:51.330 ,6,0,1.,1.2,0.,1.2,0.,1.2,,0.0,,0.0
1979-08-06 21:05:52.530 ,6,0,2.,1.2,1.,1.2,1.,1.2,,0.0,,0.0
1979-08-06 21:05:53.730 ,6,0,1.,1.2,0.,1.2,0.,1.2,,0.0,,0.0
1979-08-06 21:05:54.930 ,6,0,2.,1.2,0.,1.2,0.,1.2,,0.0,,0.0
1979-08-06 21:05:56.130 ,6,0,2.,1.2,2.,1.2,0.,1.2,,0.0,,0.0
1979-08-06 21:05:57.330 ,6,0,0.,1.2,0.,1.2,0.,1.2,,0.0,,0.0
1979-08-06 21:05:58.530 ,6,0,1.,1.2,0.,1.2,0.,1.2,,0.0,,0.0
1979-08-06 21:05:59.730 ,6,0,1.,1.2,1.,1.2,0.,1.2,,0.0,,0.0
1979-08-06 21:06:00.930 ,6,0,0.,1.2,0.,1.2,0.,1.2,,0.0,,0.0
1979-08-06 21:06:02.130 ,6,0,0.,1.2,0.,1.2,0.,1.2,,0.0,,0.0
1979-08-06 21:06:03.330 ,6,0,0.,1.2,0.,1.2,0.,1.2,,0.0,,0.0
1979-08-06 21:06:04.530 ,6,0,0.,1.2,0.,1.2,0.,1.2,,0.0,,0.0
1979-08-06 21:06:05.730 ,6,0,2.,1.2,0.,1.2,0.,1.2,,0.0,,0.0
1979-08-06 21:06:06.930 ,6,0,1.,1.2,0.,1.2,0.,1.2,,0.0,,0.0
1979-08-06 21:06:08.130 ,6,0,1.,1.2,1.,1.2,0.,1.2,,0.0,,0.0
1979-08-06 21:06:09.330 ,6,0,1.,1.2,0.,1.2,0.,1.2,,0.0,,0.0
1979-08-06 21:06:10.530 ,6,0,0.,1.2,0.,1.2,0.,1.2,,0.0,,0.0
1979-08-06 21:06:11.730 ,6,0,0.,1.2,0.,1.2,0.,1.2,,0.0,,0.0
1979-08-06 21:06:12.930 ,6,0,4.,1.2,0.,1.2,0.,1.2,,0.0,,0.0
1979-08-06 21:06:14.130 ,6,0,0.,1.2,0.,1.2,0.,1.2,,0.0,,0.0
1979-08-06 21:06:15.330 ,6,0,0.,1.2,0.,1.2,0.,1.2,,0.0,,0.0
1979-08-06 21:06:16.530 ,6,0,0.,1.2,0.,1.2,0.,1.2,,0.0,,0.0
1979-08-06 21:06:17.730 ,6,0,0.,1.2,0.,1.2,0.,1.2,,0.0,,0.0
1979-08-06 21:06:18.930 ,6,0,3.,1.2,1.,1.2,0.,1.2,,0.0,,0.0
1979-08-06 21:06:20.130 ,6,0,4.,1.2,0.,1.2,0.,1.2,,0.0,,0.0
1979-08-06 21:06:21.330 ,7,0,1.,1.2,1.,1.2,0.,1.2,,0.0,,0.0
1979-08-06 21:06:22.530 ,7,0,0.,1.2,0.,1.2,0.,1.2,,0.0,,0.0
1979-08-06 21:06:23.730 ,7,0,1.,1.2,0.,1.2,0.,1.2,,0.0,,0.0
1979-08-06 21:06:24.930 ,7,0,0.,1.2,0.,1.2,0.,1.2,,0.0,,0.0
1979-08-06 21:06:26.130 ,7,0,1.,1.2,0.,1.2,0.,1.2,,0.0,,0.0
1979-08-06 21:06:27.330 ,7,0,2.,1.2,0.,1.2,0.,1.2,,0.0,,0.0
1979-08-06 21:06:28.530 ,7,0,0.,1.2,0.,1.2,0.,1.2,,0.0,,0.0
1979-08-06 21:06:29.730 ,7,0,1.,1.2,0.,1.2,0.,1.2,,0.0,,0.0
1979-08-06 21:06:30.930 ,7,0,1.,1.2,1.,1.2,1.,1.2,,0.0,,0.0
1979-08-06 21:06:32.130 ,7,0,1.,1.2,1.,1.2,0.,1.2,,0.0,,0.0
1979-08-06 21:06:33.330 ,7,0,0.,1.2,0.,1.2,0.,1.2,,0.0,,0.0
1979-08-06 21:06:34.530 ,7,0,1.,1.2,0.,1.2,0.,1.2,,0.0,,0.0
1979-08-06 21:06:35.730 ,7,0,0.,1.2,0.,1.2,0.,1.2,,0.0,,0.0
1979-08-06 21:06:36.930 ,7,0,1.,1.2,0.,1.2,0.,1.2,,0.0,,0.0
1979-08-06 21:06:38.130 ,7,0,0.,1.2,0.,1.2,0.,1.2,,0.0,,0.0
1979-08-06 21:06:39.330 ,7,0,0.,1.2,0.,1.2,0.,1.2,,0.0,,0.0
1979-08-06 21:06:40.530 ,7,0,1.,1.2,0.,1.2,0.,1.2,,0.0,,0.0
1979-08-06 21:06:41.730 ,7,0,0.,1.2,0.,1.2,0.,1.2,,0.0,,0.0
1979-08-06 21:06:42.930 ,7,0,1.,1.2,0.,1.2,0.,1.2,,0.0,,0.0
1979-08-06 21:06:44.130 ,7,0,0.,1.2,0.,1.2,0.,1.2,,0.0,,0.0
1979-08-06 21:06:45.330 ,7,0,0.,1.2,0.,1.2,0.,1.2,,0.0,,0.0
1979-08-06 21:06:46.530 ,7,0,0.,1.2,0.,1.2,0.,1.2,,0.0,,0.0
1979-08-06 21:06:47.730 ,7,0,0.,1.2,0.,1.2,0.,1.2,,0.0,,0.0
1979-08-06 21:06:48.930 ,7,0,0.,1.2,0.,1.2,0.,1.2,,0.0,,0.0
1979-08-06 21:06:50.130 ,7,0,1.,1.2,1.,1.2,0.,1.2,,0.0,,0.0
1979-08-06 21:06:51.330 ,7,0,1.,1.2,1.,1.2,0.,1.2,,0.0,,0.0
1979-08-06 21:06:52.530 ,7,0,0.,1.2,0.,1.2,0.,1.2,,0.0,,0.0
1979-08-06 21:06:53.730 ,7,0,0.,1.2,0.,1.2,0.,1.2,,0.0,,0.0
1979-08-06 21:06:54.930 ,7,0,0.,1.2,0.,1.2,0.,1.2,,0.0,,0.0
1979-08-06 21:06:56.130 ,7,0,0.,1.2,0.,1.2,0.,1.2,,0.0,,0.0
1979-08-06 21:06:57.330 ,7,0,1.,1.2,0.,1.2,0.,1.2,,0.0,,0.0
1979-08-06 21:06:58.530 ,7,0,0.,1.2,0.,1.2,0.,1.2,,0.0,,0.0
1979-08-06 21:06:59.730 ,7,0,0.,1.2,0.,1.2,0.,1.2,,0.0,,0.0
1979-08-06 21:07:00.930 ,7,0,1.,1.2,1.,1.2,1.,1.2,,0.0,,0.0
1979-08-06 21:07:02.130 ,7,0,0.,1.2,0.,1.2,0.,1.2,,0.0,,0.0
1979-08-06 21:07:03.330 ,7,0,1.,1.2,0.,1.2,0.,1.2,,0.0,,0.0
1979-08-06 21:07:04.530 ,7,0,0.,1.2,0.,1.2,0.,1.2,,0.0,,0.0
1979-08-06 21:07:05.730 ,7,0,0.,1.2,0.,1.2,0.,1.2,,0.0,,0.0
1979-08-06 21:07:06.930 ,7,0,0.,1.2,0.,1.2,0.,1.2,,0.0,,0.0
1979-08-06 21:07:08.130 ,7,0,1.,1.2,0.,1.2,0.,1.2,,0.0,,0.0
1979-08-06 21:07:09.330 ,3,0,0.,1.2,0.,1.2,0.,1.2,,0.0,,0.0
1979-08-06 21:07:10.530 ,3,0,1.,1.2,1.,1.2,0.,1.2,,0.0,,0.0
1979-08-06 21:07:11.730 ,3,0,0.,1.2,0.,1.2,0.,1.2,,0.0,,0.0
1979-08-06 21:07:12.930 ,3,0,1.,1.2,0.,1.2,0.,1.2,,0.0,,0.0
1979-08-06 21:07:14.130 ,3,0,2.,1.2,0.,1.2,0.,1.2,,0.0,,0.0
1979-08-06 21:07:15.330 ,3,0,3.,1.2,0.,1.2,0.,1.2,,0.0,,0.0
1979-08-06 21:07:16.530 ,3,0,2.,1.2,1.,1.2,1.,1.2,,0.0,,0.0
1979-08-06 21:07:17.730 ,3,0,2.,1.2,0.,1.2,0.,1.2,,0.0,,0.0
1979-08-06 21:07:18.930 ,3,0,2.,1.2,0.,1.2,0.,1.2,,0.0,,0.0
1979-08-06 21:07:20.130 ,3,0,0.,1.2,0.,1.2,0.,1.2,,0.0,,0.0
1979-08-06 21:07:21.330 ,3,0,0.,1.2,0.,1.2,0.,1.2,,0.0,,0.0
1979-08-06 21:07:22.530 ,3,0,2.,1.2,0.,1.2,0.,1.2,,0.0,,0.0
1979-08-06 21:07:23.730 ,3,0,1.,1.2,0.,1.2,0.,1.2,,0.0,,0.0
1979-08-06 21:07:24.930 ,3,0,1.,1.2,0.,1.2,0.,1.2,,0.0,,0.0
1979-08-06 21:07:26.130 ,3,0,3.,1.2,0.,1.2,0.,1.2,,0.0,,0.0
1979-08-06 21:07:27.330 ,3,0,0.,1.2,0.,1.2,0.,1.2,,0.0,,0.0
1979-08-06 21:07:28.530 ,3,0,0.,1.2,0.,1.2,0.,1.2,,0.0,,0.0
1979-08-06 21:07:29.730 ,3,0,2.,1.2,0.,1.2,0.,1.2,,0.0,,0.0
1979-08-06 21:07:30.930 ,3,0,2.,1.2,1.,1.2,1.,1.2,,0.0,,0.0
1979-08-06 21:07:32.130 ,3,0,0.,1.2,0.,1.2,0.,1.2,,0.0,,0.0
1979-08-06 21:07:33.330 ,0,0,0.,1.2,0.,1.2,0.,1.2,,0.0,,0.0
1979-08-06 21:07:34.530 ,0,0,1.,1.2,0.,1.2,0.,1.2,,0.0,,0.0
1979-08-06 21:07:35.730 ,0,0,0.,1.2,0.,1.2,0.,1.2,,0.0,,0.0
1979-08-06 21:07:36.930 ,0,0,2.,1.2,0.,1.2,0.,1.2,,0.0,,0.0
1979-08-06 21:07:38.130 ,0,0,2.,1.2,0.,1.2,0.,1.2,,0.0,,0.0
1979-08-06 21:07:39.330 ,0,0,0.,1.2,0.,1.2,0.,1.2,,0.0,,0.0
1979-08-06 21:07:40.530 ,0,0,0.,1.2,0.,1.2,0.,1.2,,0.0,,0.0
1979-08-06 21:07:41.730 ,0,0,1.,1.2,0.,1.2,0.,1.2,,0.0,,0.0
1979-08-06 21:07:42.930 ,0,0,0.,1.2,0.,1.2,0.,1.2,,0.0,,0.0
1979-08-06 21:07:44.130 ,0,0,2.,1.2,0.,1.2,0.,1.2,,0.0,,0.0
1979-08-06 21:07:45.330 ,0,0,0.,1.2,0.,1.2,0.,1.2,,0.0,,0.0
1979-08-06 21:07:46.530 ,0,0,0.,1.2,0.,1.2,0.,1.2,,0.0,,0.0
1979-08-06 21:07:47.730 ,0,0,2.,1.2,1.,1.2,1.,1.2,,0.0,,0.0
1979-08-06 21:07:48.930 ,0,0,0.,1.2,0.,1.2,0.,1.2,,0.0,,0.0
1979-08-06 21:07:50.130 ,0,0,2.,1.2,0.,1.2,0.,1.2,,0.0,,0.0
1979-08-06 21:07:51.330 ,0,0,2.,1.2,1.,1.2,0.,1.2,,0.0,,0.0
1979-08-06 21:07:52.530 ,0,0,0.,1.2,0.,1.2,0.,1.2,,0.0,,0.0
1979-08-06 21:07:53.730 ,0,0,1.,1.2,0.,1.2,0.,1.2,,0.0,,0.0
1979-08-06 21:07:54.930 ,0,0,1.,1.2,0.,1.2,0.,1.2,,0.0,,0.0
1979-08-06 21:07:56.130 ,0,0,1.,1.2,0.,1.2,0.,1.2,,0.0,,0.0
1979-08-06 21:07:57.330 ,4,0,0.,1.2,0.,1.2,0.,1.2,,0.0,,0.0
1979-08-06 21:07:58.530 ,4,0,0.,1.2,0.,1.2,0.,1.2,,0.0,,0.0
1979-08-06 21:07:59.730 ,4,0,3.,1.2,0.,1.2,0.,1.2,,0.0,,0.0
1979-08-06 21:08:00.930 ,4,0,0.,1.2,0.,1.2,0.,1.2,,0.0,,0.0
1979-08-06 21:08:02.130 ,4,0,0.,1.2,0.,1.2,0.,1.2,,0.0,,0.0
1979-08-06 21:08:03.330 ,4,0,2.,1.2,1.,1.2,0.,1.2,,0.0,,0.0
1979-08-06 21:08:04.530 ,4,0,0.,1.2,0.,1.2,0.,1.2,,0.0,,0.0
1979-08-06 21:08:05.730 ,4,0,1.,1.2,0.,1.2,0.,1.2,,0.0,,0.0
1979-08-06 21:08:06.930 ,4,0,1.,1.2,0.,1.2,0.,1.2,,0.0,,0.0
1979-08-06 21:08:08.130 ,4,0,0.,1.2,0.,1.2,0.,1.2,,0.0,,0.0
1979-08-06 21:08:09.330 ,4,0,1.,1.2,0.,1.2,0.,1.2,,0.0,,0.0
1979-08-06 21:08:10.530 ,4,0,0.,1.2,0.,1.2,0.,1.2,,0.0,,0.0